QPF
0.01 0.01 0.01 0.01 0.00 0.00 0.00 0.00 0.00 0.00 0.00 0.00 0.00 0.00 0.00 0.00 0.00 0.00 0.00 0.00 0.00 0.00 0.00 0.00 0.00 0.00 0.00 0.00 0.00 0.00 0.00 0.00 0.00 0.00 0.00 0.00 0.00 0.00 0.00 0.00 0.00 0.00 0.00 0.00 0.00
0.00 0.00 0.00 0.00 0.00 0.00 0.00 0.00 0.00 0.00 0.00 0.00 0.00 0.00 0.00 0.00 0.00 0.00 0.00 0.00 0.00 0.00 0.00 0.00 0.00 0.00 0.00 0.00 0.00 0.00 0.00 0.00 0.00 0.00 0.00 0.00 0.00 0.00 0.00 0.00 0.00 0.00 0.00 0.00 0.00
0.01 0.01 0.00 0.00 0.00 0.00 0.00 0.00 0.00 0.00 0.00 0.00 0.00 0.00 0.00 0.00 0.00 0.00 0.00 0.00 0.00 0.00 0.00 0.00 0.00 0.00 0.00 0.00 0.00 0.00 0.00 0.00 0.00 0.00 0.00 0.00 0.00 0.00 0.00 0.00 0.00 0.00 0.00 0.00 0.00
0.01 0.01 0.01 0.01 0.01 0.00 0.00 0.00 0.00 0.00 0.00 0.00 0.00 0.00 0.00 0.00 0.00 0.00 0.00 0.00 0.00 0.00 0.00 0.00 0.00 0.00 0.00 0.00 0.00 0.00 0.00 0.00 0.00 0.00 0.00 0.00 0.00 0.00 0.00 0.00 0.00 0.00 0.00 0.00 0.00
0.01 0.01 0.01 0.01 0.01 0.00 0.00 0.00 0.00 0.00 0.00 0.00 0.00 0.00 0.00 0.00 0.00 0.00 0.00 0.00 0.00 0.00 0.00 0.00 0.00 0.00 0.00 0.00 0.00 0.00 0.00 0.00 0.00 0.00 0.00 0.00 0.00 0.00 0.00 0.00 0.00 0.00 0.00 0.00 0.00
0.01 0.01 0.01 0.01 0.01 0.00 0.00 0.00 0.00 0.00 0.00 0.00 0.00 0.00 0.00 0.00 0.00 0.00 0.00 0.00 0.00 0.00 0.00 0.00 0.00 0.00 0.00 0.00 0.00 0.00 0.00 0.00 0.00 0.00 0.00 0.00 0.00 0.00 0.00 0.00 0.00 0.00 0.00 0.00 0.00
0.01 0.01 0.01 0.01 0.01 0.00 0.00 0.00 0.00 0.00 0.00 0.00 0.00 0.00 0.00 0.00 0.00 0.00 0.00 0.00 0.00 0.00 0.00 0.00 0.00 0.00 0.00 0.00 0.00 0.00 0.00 0.00 0.00 0.00 0.00 0.00 0.00 0.00 0.00 0.00 0.00 0.00 0.00 0.00 0.00
0.01 0.01 0.01 0.01 0.00 0.00 0.00 0.00 0.00 0.00 0.00 0.00 0.00 0.00 0.00 0.00 0.00 0.00 0.00 0.00 0.00 0.00 0.00 0.00 0.00 0.00 0.00 0.00 0.00 0.00 0.00 0.00 0.00 0.00 0.00 0.00 0.00 0.00 0.00 0.00 0.00 0.00 0.00 0.00 0.00
0.01 0.00 0.00 0.00 0.00 0.00 0.00 0.00 0.00 0.00 0.00 0.00 0.00 0.00 0.00 0.00 0.00 0.00 0.00 0.00 0.00 0.00 0.00 0.00 0.00 0.00 0.00 0.00 0.00 0.00 0.00 0.00 0.00 0.00 0.00 0.00 0.00 0.00 0.00 0.00 0.00 0.00 0.00 0.00 0.00
0.00 0.00 0.00 0.00 0.00 0.00 0.00 0.00 0.00 0.00 0.00 0.00 0.00 0.00 0.00 0.00 0.00 0.00 0.00 0.00 0.00 0.00 0.00 0.00 0.00 0.00 0.00 0.00 0.00 0.00 0.00 0.00 0.00 0.00 0.00 0.00 0.00 0.00 0.00 0.00 0.00 0.00 0.00 0.00 0.00
0.00 0.00 0.00 0.00 0.00 0.00 0.00 0.00 0.00 0.00 0.00 0.00 0.00 0.00 0.00 0.00 0.00 0.00 0.00 0.00 0.00 0.00 0.00 0.00 0.00 0.00 0.00 0.00 0.00 0.00 0.00 0.00 0.00 0.00 0.00 0.00 0.00 0.00 0.00 0.00 0.00 0.00 0.00 0.00 0.00
0.00 0.00 0.00 0.00 0.00 0.00 0.00 0.00 0.00 0.00 0.00 0.00 0.00 0.00 0.00 0.00 0.00 0.00 0.00 0.00 0.00 0.00 0.00 0.00 0.00 0.00 0.00 0.00 0.00 0.00 0.00 0.00 0.00 0.00 0.00 0.00 0.00 0.00 0.00 0.00 0.00 0.00 0.00 0.00 0.00
0.00 0.00 0.00 0.00 0.00 0.00 0.00 0.00 0.00 0.00 0.00 0.00 0.00 0.00 0.00 0.00 0.00 0.00 0.00 0.00 0.00 0.00 0.00 0.00 0.00 0.00 0.00 0.00 0.00 0.00 0.00 0.00 0.00 0.00 0.00 0.00 0.00 0.00 0.00 0.00 0.00 0.00 0.00 0.00 0.00
0.00 0.00 0.00 0.00 0.00 0.00 0.00 0.00 0.00 0.00 0.00 0.00 0.00 0.00 0.00 0.00 0.00 0.00 0.00 0.00 0.00 0.00 0.00 0.00 0.00 0.00 0.00 0.00 0.00 0.00 0.00 0.00 0.00 0.00 0.00 0.00 0.00 0.00 0.00 0.00 0.00 0.00 0.00 0.00 0.00
0.00 0.00 0.00 0.00 0.00 0.00 0.00 0.00 0.00 0.00 0.00 0.00 0.00 0.00 0.00 0.00 0.00 0.00 0.00 0.00 0.00 0.00 0.00 0.00 0.00 0.00 0.00 0.00 0.00 0.00 0.00 0.00 0.00 0.00 0.00 0.00 0.00 0.00 0.00 0.00 0.00 0.00 0.00 0.00 0.00
0.00 0.00 0.00 0.00 0.00 0.00 0.00 0.00 0.00 0.00 0.00 0.00 0.00 0.00 0.00 0.00 0.00 0.00 0.00 0.00 0.00 0.00 0.00 0.00 0.00 0.00 0.00 0.00 0.00 0.00 0.00 0.00 0.00 0.00 0.00 0.00 0.00 0.00 0.00 0.00 0.00 0.00 0.00 0.00 0.00
0.00 0.00 0.00 0.00 0.00 0.00 0.00 0.00 0.00 0.00 0.00 0.00 0.00 0.00 0.00 0.00 0.00 0.00 0.00 0.00 0.00 0.00 0.00 0.00 0.00 0.00 0.00 0.00 0.00 0.00 0.00 0.00 0.00 0.00 0.00 0.00 0.00 0.00 0.00 0.00 0.00 0.00 0.00 0.00 0.00
0.00 0.00 0.00 0.00 0.00 0.00 0.00 0.00 0.00 0.00 0.00 0.00 0.00 0.00 0.00 0.00 0.00 0.00 0.00 0.00 0.00 0.00 0.00 0.00 0.00 0.00 0.00 0.00 0.00 0.00 0.00 0.00 0.00 0.00 0.00 0.00 0.00 0.00 0.00 0.00 0.00 0.00 0.00 0.00 0.00
0.00 0.00 0.00 0.00 0.00 0.00 0.00 0.00 0.00 0.00 0.00 0.00 0.00 0.00 0.00 0.00 0.00 0.00 0.00 0.00 0.00 0.00 0.00 0.00 0.00 0.00 0.00 0.00 0.00 0.00 0.00 0.00 0.00 0.00 0.00 0.00 0.00 0.00 0.00 0.00 0.00 0.00 0.00 0.00 0.00
0.00 0.00 0.00 0.00 0.00 0.00 0.00 0.00 0.00 0.00 0.00 0.00 0.00 0.00 0.00 0.00 0.00 0.00 0.00 0.00 0.00 0.00 0.00 0.00 0.00 0.00 0.00 0.00 0.00 0.00 0.00 0.00 0.00 0.00 0.00 0.00 0.00 0.00 0.00 0.00 0.00 0.00 0.00 0.00 0.00
0.00 0.00 0.00 0.00 0.00 0.00 0.00 0.00 0.00 0.00 0.00 0.00 0.00 0.00 0.00 0.00 0.00 0.00 0.00 0.00 0.00 0.00 0.00 0.00 0.00 0.00 0.00 0.00 0.00 0.00 0.00 0.00 0.00 0.00 0.00 0.00 0.00 0.00 0.00 0.00 0.00 0.00 0.00 0.00 0.00
0.00 0.00 0.00 0.00 0.00 0.00 0.00 0.00 0.00 0.00 0.00 0.00 0.00 0.00 0.00 0.00 0.00 0.00 0.00 0.00 0.00 0.00 0.00 0.00 0.00 0.00 0.00 0.00 0.00 0.00 0.00 0.00 0.00 0.00 0.00 0.00 0.00 0.00 0.00 0.00 0.00 0.00 0.00 0.00 0.00
0.00 0.00 0.00 0.00 0.00 0.00 0.00 0.00 0.00 0.00 0.00 0.00 0.00 0.00 0.00 0.00 0.00 0.00 0.00 0.00 0.00 0.00 0.00 0.00 0.00 0.00 0.00 0.00 0.00 0.00 0.00 0.00 0.00 0.02 0.02 0.02 0.00 0.00 0.00 0.00 0.00 0.00 0.00 0.00 0.00
0.00 0.00 0.00 0.00 0.00 0.00 0.00 0.00 0.00 0.00 0.00 0.00 0.00 0.00 0.00 0.00 0.00 0.00 0.00 0.00 0.00 0.00 0.00 0.00 0.00 0.00 0.00 0.00 0.00 0.00 0.00 0.00 0.00 0.04 0.01 0.00 0.00 0.00 0.00 0.00 0.00 0.00 0.00 0.00 0.00
0.00 0.00 0.00 0.00 0.00 0.00 0.00 0.00 0.00 0.00 0.00 0.00 0.00 0.00 0.00 0.00 0.00 0.00 0.00 0.00 0.00 0.00 0.00 0.00 0.01 0.00 0.00 0.00 0.00 0.00 0.00 0.00 0.00 0.00 0.01 0.00 0.00 0.00 0.00 0.00 0.00 0.00 0.00 0.00 0.00
0.00 0.00 0.00 0.00 0.00 0.00 0.00 0.00 0.00 0.00 0.00 0.00 0.00 0.00 0.00 0.00 0.00 0.00 0.00 0.00 0.00 0.00 0.00 0.00 0.00 0.00 0.00 0.00 0.00 0.00 0.00 0.00 0.00 0.00 0.00 0.00 0.00 0.00 0.00 0.00 0.00 0.00 0.00 0.00 0.00
0.00 0.00 0.00 0.00 0.00 0.00 0.00 0.00 0.00 0.00 0.00 0.00 0.00 0.00 0.00 0.00 0.00 0.00 0.00 0.00 0.00 0.00 0.00 0.00 0.00 0.01 0.01 0.00 0.00 0.00 0.00 0.00 0.00 0.00 0.00 0.00 0.00 0.00 0.00 0.00 0.00 0.00 0.00 0.00 0.00
MSLP
1020.27 1019.89 1019.54 1019.21 1018.91 1018.69 1018.45 1018.12 1017.74 1017.42 1017.10 1016.84 1016.59 1016.34 1016.07 1015.68 1015.29 1015.07 1013.96 1012.45 1012.43 1012.05 1012.00 1011.67 1011.48 1011.36 1011.36 1011.01 1010.87 1010.70 1009.90 1009.17 1009.23 1008.87 1008.21 1008.09 1007.38 1007.57 1007.32 1007.45 1007.28 1007.22 1006.87 1006.61 1006.31
1020.21 1019.81 1019.41 1019.05 1018.69 1018.38 1018.09 1017.82 1017.55 1017.24 1016.87 1016.65 1016.39 1016.17 1015.87 1015.52 1014.90 1013.73 1012.03 1012.06 1012.08 1012.00 1011.74 1011.54 1011.36 1011.30 1011.10 1010.95 1010.55 1010.18 1009.47 1008.87 1008.72 1008.34 1008.06 1008.06 1007.79 1007.81 1007.54 1007.50 1007.00 1007.07 1007.05 1006.68 1006.22
1020.09 1019.64 1019.25 1018.92 1018.55 1018.22 1017.84 1017.56 1017.31 1016.99 1016.61 1016.40 1016.19 1015.92 1015.63 1015.27 1014.26 1011.87 1011.41 1011.78 1011.90 1011.99 1011.92 1011.77 1011.50 1011.08 1010.94 1010.83 1010.47 1010.07 1009.43 1009.45 1008.66 1008.55 1008.42 1008.30 1008.20 1008.08 1007.58 1007.46 1007.09 1006.88 1006.58 1006.35 1005.98
1019.96 1019.48 1019.08 1018.70 1018.29 1017.93 1017.62 1017.23 1016.98 1016.72 1016.42 1016.22 1015.99 1015.71 1015.37 1015.06 1013.35 1011.60 1011.51 1011.69 1011.88 1011.97 1011.82 1011.64 1011.37 1010.92 1010.97 1010.77 1010.73 1010.37 1010.05 1009.81 1009.14 1008.84 1008.76 1008.71 1008.48 1007.94 1007.69 1006.89 1007.24 1007.12 1006.71 1006.39 1006.02
1019.79 1019.30 1018.86 1018.39 1017.96 1017.58 1017.26 1016.93 1016.62 1016.41 1016.24 1016.11 1015.81 1015.56 1015.17 1014.21 1012.23 1011.48 1011.53 1011.75 1011.89 1011.86 1011.65 1011.47 1011.25 1011.02 1010.82 1010.89 1010.82 1010.59 1010.38 1010.18 1009.68 1009.32 1008.82 1008.73 1008.21 1007.82 1007.03 1006.97 1006.95 1007.07 1006.72 1006.18 1006.17
1019.60 1019.16 1018.70 1018.23 1017.75 1017.34 1017.00 1016.60 1016.37 1016.14 1015.98 1015.85 1015.64 1015.43 1014.91 1013.19 1011.49 1011.40 1011.54 1011.74 1011.70 1011.73 1011.53 1011.43 1011.13 1011.08 1011.01 1011.10 1010.95 1011.07 1010.79 1010.26 1009.70 1009.08 1008.55 1008.28 1007.77 1007.86 1007.19 1007.13 1007.21 1006.92 1006.84 1006.27 1006.07
1019.37 1018.88 1018.40 1017.93 1017.43 1017.01 1016.61 1016.22 1015.94 1015.76 1015.67 1015.63 1015.46 1015.26 1014.43 1012.20 1011.38 1011.48 1011.48 1011.40 1011.47 1011.49 1011.22 1011.20 1011.11 1011.04 1011.32 1011.16 1011.42 1011.18 1010.82 1010.16 1009.62 1009.15 1008.34 1008.06 1007.48 1007.37 1008.11 1007.47 1007.22 1006.54 1006.70 1006.63 1006.62
1019.22 1018.76 1018.27 1017.76 1017.22 1016.75 1016.18 1015.75 1015.41 1015.34 1015.38 1015.43 1015.28 1015.02 1013.15 1011.52 1011.39 1011.34 1011.34 1011.20 1011.26 1011.35 1011.32 1011.12 1011.10 1011.16 1011.31 1011.55 1011.46 1011.18 1011.19 1010.11 1009.70 1009.35 1008.61 1008.47 1007.10 1008.14 1008.39 1008.07 1007.43 1007.35 1007.29 1006.61 1006.37
1018.95 1018.58 1018.03 1017.46 1016.95 1016.42 1015.91 1015.43 1014.73 1014.71 1015.14 1015.25 1015.22 1014.49 1012.13 1011.16 1011.09 1010.67 1010.80 1010.75 1010.85 1011.03 1011.09 1011.16 1011.20 1011.52 1011.66 1011.49 1011.44 1011.53 1010.82 1010.54 1009.79 1009.46 1009.19 1009.03 1008.41 1008.47 1008.78 1008.47 1007.93 1007.46 1007.19 1006.73 1006.28
1018.63 1018.17 1017.64 1017.07 1016.58 1016.16 1015.56 1015.17 1014.93 1014.90 1015.14 1015.03 1014.69 1014.31 1011.94 1011.27 1010.86 1010.61 1010.65 1010.74 1010.74 1010.89 1011.08 1011.25 1011.41 1011.54 1011.80 1011.57 1011.08 1011.17 1011.06 1010.82 1010.26 1009.66 1009.50 1008.97 1008.63 1008.75 1008.39 1008.28 1007.90 1007.66 1006.95 1006.78 1006.57
1018.29 1017.78 1017.24 1016.73 1016.14 1015.85 1015.31 1014.88 1015.15 1014.92 1014.59 1013.87 1013.46 1012.89 1011.97 1011.31 1010.90 1010.40 1010.39 1010.66 1010.84 1011.02 1011.09 1011.57 1011.29 1011.08 1011.25 1011.55 1011.57 1011.44 1011.22 1010.83 1010.49 1010.13 1009.86 1008.99 1008.67 1008.25 1007.98 1007.68 1007.34 1007.03 1006.77 1006.69 1006.63
1018.10 1017.53 1016.94 1016.46 1015.91 1015.63 1015.48 1014.76 1014.94 1014.99 1014.11 1013.02 1012.85 1012.48 1011.92 1011.66 1011.03 1010.41 1010.39 1010.64 1010.79 1011.01 1011.55 1011.72 1011.11 1011.13 1011.38 1011.44 1011.51 1011.47 1011.18 1010.79 1010.68 1010.46 1010.15 1009.10 1008.30 1007.96 1007.21 1006.79 1006.54 1006.42 1006.54 1006.59 1006.75
1017.81 1017.22 1016.60 1016.07 1015.57 1015.32 1015.09 1015.00 1014.80 1014.73 1014.06 1012.63 1012.10 1011.65 1011.27 1011.41 1010.90 1010.37 1010.35 1010.48 1010.75 1011.07 1011.32 1011.27 1011.04 1011.21 1011.38 1011.30 1011.31 1011.20 1011.13 1011.01 1010.92 1010.62 1010.18 1009.38 1007.46 1007.18 1006.69 1006.31 1006.21 1006.14 1006.11 1006.10 1006.22
1017.43 1016.80 1016.23 1015.75 1015.57 1015.37 1014.93 1014.87 1014.66 1014.48 1013.50 1012.28 1011.43 1010.87 1011.09 1010.98 1010.54 1009.99 1010.04 1010.27 1010.73 1010.96 1011.42 1011.38 1011.21 1011.16 1011.18 1011.06 1011.23 1010.99 1011.17 1011.22 1011.20 1011.04 1010.11 1010.17 1007.63 1006.78 1006.28 1005.91 1005.97 1005.91 1005.80 1005.82 1006.26
1017.07 1016.45 1016.05 1015.70 1015.46 1015.12 1014.96 1014.55 1014.35 1014.30 1013.07 1011.71 1010.75 1010.33 1010.58 1010.72 1010.36 1009.80 1009.93 1010.06 1010.19 1010.74 1011.40 1010.83 1010.92 1011.01 1010.87 1010.63 1010.97 1010.87 1011.29 1011.36 1011.35 1011.08 1010.76 1009.70 1009.02 1006.42 1006.24 1005.74 1005.68 1005.68 1005.83 1005.98 1006.26
1016.56 1016.08 1015.95 1015.79 1015.59 1014.86 1014.76 1014.49 1014.18 1013.82 1012.32 1011.35 1010.80 1010.62 1010.68 1010.66 1010.44 1010.11 1010.07 1010.18 1010.30 1010.60 1010.91 1010.60 1010.87 1010.83 1010.49 1010.60 1010.84 1011.18 1011.32 1011.32 1011.56 1011.18 1010.13 1009.18 1008.72 1006.12 1005.66 1005.20 1005.41 1005.38 1005.49 1005.97 1006.25
1016.32 1015.66 1015.70 1015.42 1015.12 1014.83 1014.59 1014.18 1013.91 1012.92 1012.24 1011.66 1011.19 1011.17 1011.19 1010.97 1010.74 1010.67 1010.54 1010.50 1010.53 1010.64 1010.55 1010.55 1010.45 1010.48 1010.65 1010.66 1011.10 1011.19 1011.45 1010.90 1010.66 1010.33 1009.24 1009.36 1008.41 1006.20 1005.89 1005.57 1005.31 1005.13 1005.27 1005.82 1006.20
1016.16 1015.60 1015.45 1015.12 1014.98 1014.87 1014.46 1014.15 1013.39 1012.56 1012.04 1011.73 1011.53 1011.48 1011.37 1011.30 1011.16 1011.10 1010.93 1010.74 1010.88 1010.86 1010.71 1010.38 1010.24 1010.44 1010.62 1010.57 1010.68 1011.16 1011.63 1011.65 1010.95 1010.26 1009.28 1009.05 1006.99 1005.21 1005.55 1005.62 1005.54 1005.39 1005.65 1005.75 1005.78
1015.93 1015.45 1015.11 1014.91 1014.84 1014.78 1014.44 1013.89 1012.87 1012.58 1012.36 1012.07 1011.76 1011.59 1011.56 1011.60 1011.64 1011.40 1011.02 1010.72 1010.63 1010.86 1010.74 1010.80 1010.63 1010.71 1010.79 1010.86 1011.10 1011.47 1011.82 1012.27 1011.78 1011.33 1010.52 1008.26 1006.36 1005.71 1004.99 1005.08 1005.01 1005.11 1005.33 1005.38 1005.65
1016.24 1015.45 1014.93 1014.84 1014.80 1014.70 1014.34 1013.71 1013.17 1012.67 1012.47 1012.37 1012.02 1011.79 1011.65 1011.69 1011.82 1011.60 1011.14 1010.72 1010.73 1010.95 1011.14 1011.31 1011.18 1010.99 1010.88 1011.08 1011.15 1011.14 1011.75 1012.34 1012.56 1011.46 1009.79 1007.57 1006.17 1004.97 1004.76 1004.70 1004.89 1004.83 1004.91 1004.85 1005.05
1016.35 1015.63 1015.02 1014.88 1014.76 1014.67 1014.56 1014.04 1013.35 1012.79 1012.71 1012.49 1012.01 1011.95 1011.88 1011.91 1011.85 1011.66 1011.14 1010.86 1010.80 1011.15 1011.58 1011.83 1012.01 1011.46 1011.54 1010.95 1010.71 1011.38 1011.45 1012.05 1012.30 1011.92 1010.30 1008.14 1005.18 1005.03 1004.84 1004.77 1004.87 1004.84 1004.72 1004.63 1004.60
1016.72 1015.71 1014.93 1014.75 1015.18 1015.71 1015.14 1014.71 1014.02 1013.02 1012.74 1012.47 1012.28 1012.02 1012.02 1012.07 1011.90 1011.77 1011.22 1010.91 1010.95 1011.14 1011.55 1011.95 1012.12 1011.41 1010.93 1010.66 1011.01 1010.94 1010.98 1011.30 1011.49 1011.10 1010.66 1009.41 1004.72 1004.99 1004.82 1004.86 1004.97 1004.85 1004.52 1004.36 1004.26
1017.57 1016.50 1015.21 1014.92 1015.67 1015.97 1015.61 1015.05 1014.38 1013.46 1013.00 1012.80 1012.54 1012.45 1012.52 1012.39 1012.30 1011.71 1011.40 1011.27 1011.29 1011.34 1011.57 1012.19 1012.16 1011.51 1010.48 1010.93 1011.19 1010.77 1010.68 1010.93 1011.27 1011.34 1010.20 1009.26 1005.06 1004.98 1004.82 1004.55 1004.48 1004.63 1004.49 1004.07 1003.69
1018.18 1017.45 1016.51 1016.41 1017.01 1016.75 1016.53 1015.45 1014.57 1013.78 1013.42 1013.29 1012.98 1012.98 1013.03 1012.85 1012.69 1012.02 1011.88 1011.86 1011.94 1011.95 1012.12 1012.45 1012.27 1011.70 1010.94 1010.27 1010.84 1010.55 1010.34 1010.36 1010.52 1010.24 1008.65 1007.83 1005.02 1004.57 1004.35 1004.11 1003.96 1003.97 1003.87 1003.56 1003.13
1018.95 1019.27 1019.51 1018.10 1017.61 1017.43 1017.21 1016.27 1015.20 1014.48 1014.04 1013.87 1013.43 1013.50 1013.59 1013.38 1013.11 1012.62 1012.47 1012.43 1012.28 1012.29 1012.41 1012.57 1011.91 1011.77 1011.08 1010.62 1010.47 1009.91 1009.31 1009.12 1009.05 1008.40 1008.15 1006.67 1006.00 1004.09 1003.80 1003.40 1003.29 1003.22 1003.23 1002.96 1002.49
1019.97 1019.86 1019.71 1018.90 1018.44 1017.93 1017.27 1016.29 1015.86 1015.40 1015.17 1014.29 1014.12 1014.01 1014.18 1014.01 1013.68 1013.22 1013.07 1013.00 1012.55 1012.26 1012.00 1012.26 1011.54 1011.28 1010.64 1010.25 1009.85 1009.05 1008.01 1007.62 1007.27 1006.96 1006.61 1005.71 1004.90 1003.97 1003.47 1003.09 1002.73 1002.59 1002.53 1002.32 1001.98
1020.72 1020.70 1020.23 1018.79 1018.45 1018.14 1016.99 1016.50 1016.27 1016.44 1015.33 1014.96 1014.79 1014.74 1014.25 1013.97 1013.86 1013.40 1013.14 1012.68 1012.38 1012.26 1012.11 1012.10 1011.80 1011.53 1010.28 1009.87 1009.27 1007.84 1005.63 1005.53 1005.33 1005.25 1005.06 1004.24 1003.35 1003.10 1002.90 1002.62 1002.44 1002.06 1002.09 1001.82 1001.35
Thickness
5575 5580 5584 5589 5594 5598 5602 5607 5611 5615 5619 5622 5625 5628 5631 5636 5640 5644 5653 5667 5668 5671 5673 5676 5678 5679 5679 5678 5679 5682 5669 5669 5677 5685 5697 5713 5715 5725 5740 5733 5738 5748 5753 5768 5787
5575 5580 5585 5589 5594 5598 5602 5606 5610 5613 5617 5619 5622 5625 5628 5632 5638 5646 5663 5663 5663 5665 5667 5667 5666 5668 5665 5667 5670 5668 5664 5673 5692 5698 5697 5705 5707 5708 5714 5719 5730 5739 5753 5764 5777
5576 5580 5585 5589 5593 5598 5602 5605 5608 5611 5615 5617 5619 5622 5625 5628 5637 5655 5660 5658 5658 5658 5659 5659 5659 5660 5655 5659 5660 5661 5657 5668 5683 5692 5693 5694 5695 5702 5703 5704 5721 5728 5741 5756 5767
5576 5581 5586 5590 5594 5598 5601 5605 5608 5610 5613 5614 5616 5618 5621 5623 5636 5650 5652 5651 5650 5650 5651 5650 5650 5647 5643 5643 5648 5645 5653 5656 5673 5680 5680 5681 5688 5691 5698 5714 5717 5724 5737 5745 5755
5577 5582 5587 5592 5596 5600 5603 5606 5608 5610 5611 5612 5614 5615 5618 5624 5635 5645 5644 5643 5643 5643 5642 5641 5640 5639 5635 5636 5638 5637 5641 5649 5660 5665 5673 5678 5681 5684 5697 5711 5711 5715 5729 5736 5743
5579 5583 5587 5591 5596 5600 5603 5606 5608 5609 5610 5610 5611 5611 5615 5622 5639 5639 5638 5637 5637 5636 5635 5636 5636 5636 5630 5627 5628 5629 5632 5639 5650 5659 5668 5668 5679 5677 5692 5693 5691 5706 5709 5722 5733
5580 5584 5588 5592 5596 5600 5603 5606 5608 5609 5609 5608 5608 5608 5611 5626 5635 5632 5633 5633 5633 5632 5630 5632 5633 5630 5626 5623 5623 5623 5622 5631 5641 5650 5657 5666 5666 5672 5670 5677 5691 5708 5708 5709 5714
5582 5586 5589 5592 5596 5599 5604 5607 5610 5610 5608 5606 5606 5606 5616 5630 5629 5629 5628 5628 5628 5627 5625 5628 5628 5623 5620 5619 5617 5615 5613 5619 5632 5638 5649 5654 5660 5661 5660 5666 5677 5684 5690 5701 5706
5585 5586 5590 5593 5596 5600 5603 5607 5612 5611 5606 5604 5604 5606 5619 5630 5626 5630 5627 5623 5623 5622 5622 5622 5619 5609 5610 5606 5605 5602 5604 5606 5617 5631 5633 5637 5636 5651 5652 5655 5660 5669 5677 5691 5702
5588 5590 5592 5595 5597 5599 5603 5605 5606 5605 5602 5602 5603 5604 5620 5617 5623 5624 5623 5619 5614 5613 5610 5609 5604 5601 5596 5598 5593 5593 5596 5599 5603 5619 5621 5625 5630 5638 5647 5649 5654 5658 5667 5679 5687
5592 5593 5595 5598 5600 5601 5603 5605 5606 5605 5603 5609 5609 5607 5611 5617 5620 5618 5619 5611 5608 5602 5594 5593 5593 5591 5594 5592 5593 5592 5592 5593 5602 5612 5608 5618 5620 5630 5641 5645 5651 5658 5665 5665 5676
5596 5597 5598 5599 5602 5602 5601 5607 5601 5599 5600 5608 5605 5604 5607 5608 5603 5609 5613 5600 5595 5587 5585 5584 5584 5590 5588 5587 5584 5583 5584 5589 5594 5600 5602 5611 5617 5624 5638 5643 5649 5654 5657 5661 5661
5600 5601 5603 5603 5604 5604 5605 5602 5598 5597 5595 5605 5606 5605 5607 5604 5599 5601 5605 5598 5589 5581 5580 5577 5584 5583 5578 5578 5576 5580 5577 5578 5580 5588 5595 5598 5619 5623 5633 5641 5641 5647 5653 5657 5657
5604 5606 5606 5606 5607 5603 5605 5599 5597 5596 5595 5602 5605 5607 5604 5602 5596 5607 5605 5596 5584 5578 5571 5573 5577 5574 5573 5572 5571 5568 5574 5573 5571 5572 5576 5585 5592 5617 5627 5629 5630 5635 5642 5646 5645
5608 5609 5608 5607 5607 5607 5603 5600 5598 5595 5584 5602 5603 5613 5604 5597 5598 5600 5602 5592 5581 5575 5570 5572 5571 5568 5567 5571 5569 5567 5566 5565 5564 5565 5564 5581 5571 5606 5614 5617 5621 5624 5627 5631 5634
5612 5611 5608 5606 5603 5604 5600 5599 5598 5590 5582 5596 5601 5594 5592 5591 5591 5595 5590 5590 5585 5573 5568 5573 5569 5568 5570 5568 5566 5561 5559 5560 5551 5556 5560 5573 5573 5596 5603 5607 5609 5616 5618 5616 5617
5612 5613 5609 5606 5608 5602 5600 5600 5592 5588 5596 5589 5588 5588 5583 5582 5582 5580 5575 5572 5570 5560 5563 5564 5564 5565 5563 5559 5555 5555 5551 5549 5553 5559 5569 5563 5565 5589 5592 5593 5596 5602 5606 5601 5601
5610 5610 5608 5606 5602 5599 5599 5595 5584 5590 5587 5592 5586 5581 5576 5576 5575 5570 5568 5566 5562 5558 5554 5555 5554 5558 5558 5556 5552 5547 5545 5538 5530 5549 5563 5565 5567 5591 5589 5584 5579 5582 5582 5585 5590
5607 5608 5607 5604 5600 5597 5597 5584 5592 5586 5585 5581 5581 5574 5571 5570 5566 5563 5562 5563 5563 5557 5551 5541 5544 5551 5549 5548 5545 5535 5534 5535 5533 5537 5531 5558 5579 5583 5587 5574 5571 5567 5564 5570 5577
5600 5605 5605 5599 5596 5593 5592 5584 5583 5587 5581 5576 5569 5573 5565 5563 5557 5555 5555 5559 5555 5552 5548 5540 5531 5542 5543 5540 5538 5535 5534 5526 5518 5518 5528 5557 5563 5570 5567 5564 5559 5560 5560 5561 5562
5597 5601 5597 5593 5591 5589 5583 5580 5579 5582 5577 5570 5569 5565 5563 5558 5555 5551 5552 5554 5552 5544 5538 5532 5525 5533 5528 5531 5531 5526 5526 5520 5519 5518 5526 5536 5567 5565 5559 5557 5552 5551 5552 5553 5554
5589 5596 5592 5589 5584 5560 5573 5570 5570 5573 5570 5566 5563 5562 5557 5553 5549 5545 5545 5546 5545 5540 5530 5527 5517 5523 5528 5533 5527 5526 5526 5524 5518 5522 5518 5522 5560 5563 5555 5550 5543 5541 5543 5550 5551
5577 5581 5584 5584 5575 5568 5563 5561 5562 5565 5562 5557 5554 5552 5547 5545 5537 5541 5541 5540 5535 5531 5523 5515 5513 5514 5526 5521 5513 5517 5520 5518 5513 5506 5510 5508 5551 5550 5546 5545 5542 5532 5534 5540 5544
5571 5578 5574 5565 5549 5555 5548 5555 5555 5559 5556 5549 5547 5541 5535 5534 5532 5532 5528 5526 5521 5518 5514 5507 5505 5510 5512 5522 5508 5509 5515 5516 5510 5498 5521 5523 5543 5548 5543 5541 5539 5536 5534 5536 5539
5554 5548 5531 5555 5547 5537 5531 5537 5544 5544 5544 5538 5538 5532 5527 5524 5520 5519 5515 5510 5510 5506 5502 5496 5497 5501 5507 5509 5505 5509 5515 5517 5511 5518 5505 5527 5525 5541 5543 5542 5539 5536 5533 5533 5536
5546 5542 5529 5528 5520 5524 5525 5536 5534 5534 5526 5532 5525 5522 5512 5506 5508 5507 5502 5497 5494 5497 5494 5489 5494 5499 5500 5504 5501 5500 5517 5521 5521 5523 5520 5524 5526 5539 5541 5541 5539 5536 5533 5531 5533
5524 5520 5521 5530 5521 5520 5531 5529 5523 5510 5524 5518 5512 5500 5503 5503 5495 5491 5486 5486 5486 5485 5488 5482 5489 5483 5495 5501 5496 5499 5532 5530 5531 5532 5528 5526 5540 5541 5536 5535 5535 5536 5529 5529 5530